SCP
0 0 0 0 0 0 0 0 0 0 0 0 0 0 0 0 0 0 0 0 0 0 0 0 0 0 0 0 0 0 0 0 -0 -0 -0 0 0 0 0 0 0 0 0 0
0 0 0 0 0 0 0 0 0 0 0 0 0 0 0 0 0 0 0 0 0 0 0 0 0 0 0 0 0 0 0 0 0 0 0 0 0 0 0 0 0 0 0 0
0 0 0 0 0 0 0 0 0 0 0 0 0 0 0 0 0 0 0 0 0 0 0 0 0 0 0 0 0 0 0 0 0 0 0 0 0 0 0 0 0 0 0 0
0 0 0 0 0 0 0 0 0 0 0 0 0 0 0 0 0 0 0 0 0 0 0 0 0 0 0 0 0 0 0 0 0 0 0 0 0 0 0 0 0 0 0 0
0 0 0 0 0 0 0 0 0 0 0 0 0 0 -0 0 0 0 0 -0 0 0 0 0 0 0 0 0 0 0 0 0 0 0 0 0 0 0 0 0 0 0 0 0
0 0 0 0 0 0 0 0 0 0 0 0 0 0 0 0 0 0 0 0 0 0 0 0 0 0 0 0 0 0 0 0 0 0 0 0 0 0 0 0 0 0 0 0
0 0 0 0 0 0 0 0 0 0 0 0 0 0 0 -0 0 0 0 0 0 0 -0 -0 -0 0 0 0 0 0 0 0 0 0 0 0 0 0 0 0 0 0 0 0
0 0 0 0 0 0 0 0 0 0 0 0 0 0 0 0 0 0 0 0 0 0 0 -0 -0 0 0 0 0 0 0 0 0 0 0 0 0 0 0 0 0 0 0 0
0 0 0 0 0 0 0 0 0 0 0 0 0 0 0 0 0 0 0 0 0 0 0 0 -0 0 0 0 0 0 0 0 0 0 0 0 0 0 0 0 0 0 0 0
0 0 0 0 0 0 0 0 0 0 0 0 0 0 0 0 0 0 0 0 0 0 0 0 -0 0 0 0 0 0 0 0 0 0 0 0 0 0 0 0 0 0 0 0
0 0 0 0 0 0 0 0 0 0 0 0 0 0 0 0 -0 0 0 0 0 -0 -0 -0 -0 0 0 0 0 0 0 0 0 0 0 0 0 0 0 0 0 0 0 0
0 0 0 0 0 0 0 0 0 0 0 0 0 0 0 0 0 0 0 0 -0 -0 -0 -0 0 0 0 0 0 0 0 0 0 0 0 0 0 0 0 0 0 0 0 0
0 0 0 0 0 0 0 0 0 0 0 0 0 0 0 0 0 0 0 -0 0 -0 0 0 0 0 0 0 0 0 0 0 0 0 0 0 0 0 0 0 0 0 0 0
0 0 0 0 0 0 0 0 0 0 0 0 0 0 0 0 0 0 0 0 0 0 0 0 0 0 0 0 0 0 0 0 0 0 0 0 0 0 0 0 0 0 0 0
0 0 0 0 0 0 0 0 0 0 0 0 0 0 0 0 0 0 0 -0 -0 0 0 0 0 0 0 0 0 0 0 0 0 0 0 0 0 0 0 0 0 0 0 0
0 0 0 0 0 0 0 0 0 0 0 0 0 0 0 0 0 0 0 0 0 0 0 0 0 0 0 0 0 0 0 0 0 0 0 0 0 0 0 0 0 0 0 0
0 0 0 0 0 0 0 0 0 0 0 0 0 0 0 0 0 0 0 0 0 0 0 0 0 0 0 0 0 0 0 0 0 0 0 0 0 0 0 0 0 0 0 0
0 0 0 0 0 0 0 0 0 0 0 0 0 0 0 0 0 0 0 0 0 0 0 0 0 0 0 0 0 0 0 0 0 0 0 0 0 0 0 0 0 0 0 0
0 0 0 0 0 0 0 0 0 0 0 0 0 0 0 0 0 0 0 0 0 0 0 0 0 0 0 0 -0 -0 0 0 0 0 0 0 0 0 0 0 0 0 0 0
0 0 0 0 0 0 0 0 0 0 0 0 0 0 0 0 0 0 0 0 0 0 0 0 0 0 0 0 -0 -0 -0 0 0 0 0 0 0 0 0 0 0 0 0 0
0 0 0 0 0 0 0 0 0 0 0 0 0 0 0 0 0 0 0 0 0 0 0 0 0 0 0 0 0 -0 -0 -0 0 0 0 0 0 0 0 0 0 0 0 0
0 0 0 0 0 0 0 0 0 0 0 0 0 0 0 0 -0 -0 -0 0 0 0 0 0 0 0 0 0 0 -0 -0 -0 0 0 0 0 0 0 0 0 0 0 0 0
0 0 0 0 0 0 0 0 0 0 0 0 0 0 0 0 -0 -0 0 0 0 0 0 0 0 -0 0 0 0 -0 -0 -0 -0 0 0 -0 0 0 0 0 0 0 0 0
0 0 0 0 0 0 0 0 0 0 0 0 0 0 0 0 0 0 0 0 0 0 0 0 -0 -0 -0 0 0 0 -0 -0 -0 -0 -0 0 -0 -0 0 0 0 0 0 0
0 0 0 0 0 0 0 0 0 0 0 0 0 0 0 0 0 0 0 0 0 0 0 0 0 -0 -0 0 0 0 0 0 -0 -0 -0 -0 -0 -0 -0 -0 0 0 0 0
0 0 0 0 0 0 0 0 0 0 0 0 0 0 0 0 0 0 0 0 0 0 0 0 0 0 -0 0 0 0 0 0 0 0 -0 -0 -0 -0 -0 -0 -0 -0 -0 0
Wind_Speed_500mb
8 5 11 7 9 8 4 7 14 12 12 8 11 29 46 28 41 38 37 28 13 19 24 23 24 26 24 17 12 10 10 17 35 48 52 46 43 44 47 50 53 59 63 64
4 9 11 9 8 2 2 7 9 10 7 5 15 37 48 36 18 8 7 3 10 19 22 22 23 18 16 16 20 19 19 29 48 58 64 59 53 56 60 60 61 62 61 67
11 7 7 3 5 3 7 8 3 4 15 10 17 16 13 3 7 10 10 12 19 27 26 24 22 18 17 28 25 22 28 49 65 72 69 63 60 66 73 78 82 83 85 87
7 7 1 2 4 4 4 12 9 8 12 6 8 11 16 6 9 11 19 22 26 25 24 21 22 20 25 29 32 36 45 64 72 66 62 65 69 74 79 80 83 82 78 81
1 8 5 6 1 4 5 5 6 5 3 7 2 5 17 3 6 13 16 28 26 25 21 24 18 17 27 35 38 39 61 70 69 69 68 69 74 77 81 83 85 86 85 82
5 5 6 6 7 7 8 4 8 4 6 3 2 4 12 2 4 8 11 25 25 25 21 21 24 26 30 33 39 55 73 76 70 69 70 72 77 81 85 89 90 87 85 81
5 4 6 4 4 2 4 4 2 5 3 7 10 5 19 25 17 3 8 17 22 17 18 17 13 23 31 45 53 73 77 72 69 69 72 74 74 80 86 89 89 82 76 72
7 5 4 6 7 5 9 2 6 7 5 5 8 10 12 7 6 14 16 17 12 8 12 8 23 32 45 57 66 72 68 69 66 70 76 79 82 80 75 77 83 85 84 89
4 5 6 9 5 6 2 2 5 7 4 4 8 11 17 19 13 15 9 5 1 2 4 17 23 37 46 61 65 62 62 61 68 78 81 78 76 74 75 75 78 81 82 81
2 2 3 4 3 6 5 0 2 4 5 8 7 5 7 17 13 12 15 26 16 5 22 28 32 44 55 59 56 53 55 68 77 72 73 75 70 68 63 65 73 77 77 78
6 3 3 4 9 10 4 3 4 1 5 6 5 9 7 7 2 9 10 16 19 20 38 48 50 50 53 51 48 55 70 72 71 74 74 71 66 63 60 62 69 71 72 72
2 1 4 3 8 9 6 5 8 6 4 3 4 13 2 13 8 4 23 43 37 33 48 48 55 54 53 48 54 66 69 67 72 73 71 65 62 56 55 60 59 60 66 66
6 3 2 6 5 4 5 8 7 8 4 11 5 10 10 14 23 52 48 61 75 66 47 54 64 54 46 50 58 67 66 67 69 70 65 61 55 50 53 56 58 60 64 66
6 3 10 10 8 7 5 9 14 12 6 6 21 31 35 35 28 28 59 64 50 44 56 63 52 40 46 49 59 66 69 69 67 63 60 55 50 50 51 53 58 61 63 65
6 10 8 8 9 11 12 18 18 22 24 11 36 32 41 34 35 53 44 64 55 51 58 45 42 43 45 51 61 69 69 70 65 58 57 51 49 49 49 54 59 56 59 59
5 4 6 8 16 19 26 31 20 30 33 34 44 48 46 58 32 50 46 42 44 43 41 43 47 44 44 50 61 71 70 68 62 56 56 47 47 44 49 52 53 52 53 52
11 7 6 9 2 3 16 21 34 23 19 22 31 44 28 14 16 31 42 28 27 39 46 48 51 49 45 49 59 70 68 63 59 53 51 46 46 45 48 46 48 48 47 45
12 8 7 5 3 15 16 7 11 28 32 25 30 27 29 19 30 46 18 20 45 55 57 51 51 53 47 47 56 67 62 59 53 51 48 44 44 44 42 40 37 38 43 43
19 13 7 8 12 18 35 21 13 17 28 28 26 30 16 14 25 19 12 42 50 54 57 56 51 52 48 45 51 63 62 57 51 47 46 41 39 41 41 37 37 42 40 39
29 29 14 6 9 17 15 5 9 6 17 19 30 13 13 7 4 8 42 53 51 55 61 54 51 51 45 40 46 57 58 56 55 46 45 40 35 33 36 33 33 34 30 30
9 12 33 32 23 14 19 15 16 11 12 3 22 22 16 8 11 41 46 51 49 56 60 51 47 46 42 37 40 49 55 53 52 44 40 36 31 29 28 29 27 25 25 25
14 20 14 13 17 34 23 13 19 10 6 9 17 17 9 21 39 42 39 45 53 54 56 49 44 50 36 35 35 40 48 47 46 42 38 36 30 27 26 24 21 18 18 20
10 16 10 20 15 9 24 15 38 41 18 10 16 24 32 53 51 46 45 43 57 60 58 57 48 51 36 32 32 31 37 43 41 40 34 33 31 27 27 26 24 21 21 23
16 25 22 16 26 26 36 23 25 31 38 47 58 74 68 64 55 47 47 62 65 62 58 60 52 51 51 34 30 26 27 35 38 34 28 26 31 35 36 37 41 42 37 32
13 4 13 26 39 39 52 57 65 77 75 67 60 61 65 55 48 49 62 72 70 70 67 57 57 51 55 43 32 27 22 21 28 29 26 23 29 38 42 47 47 49 49 46
31 22 19 25 33 45 49 49 39 52 62 64 61 54 47 48 53 56 70 82 81 79 76 69 65 50 51 54 36 31 27 15 13 17 20 22 25 32 38 44 49 49 49 52
Wind_Direction_500mb
181 229 218 63 65 59 345 289 276 318 65 337 269 289 288 284 278 273 270 272 259 237 242 230 212 204 206 205 214 237 263 326 342 341 331 304 293 292 288 283 276 271 268 269
189 225 60 70 68 46 241 289 297 294 30 337 311 298 285 287 260 222 123 166 185 150 164 181 189 191 185 196 210 233 262 307 326 328 325 315 296 288 280 272 269 265 263 265
265 83 91 44 134 292 246 227 342 238 330 259 319 278 301 48 113 133 169 154 161 161 168 176 184 196 199 220 236 255 301 320 322 318 313 310 300 294 290 288 285 277 270 267
273 67 167 137 268 147 259 29 47 333 16 289 25 279 300 293 175 187 190 185 167 167 166 181 191 198 227 257 273 293 312 321 322 320 315 309 302 295 293 287 281 276 275 274
170 150 154 213 98 152 126 49 49 9 68 29 289 71 274 203 237 200 196 188 184 188 185 185 213 219 230 256 285 305 320 321 318 313 309 304 298 294 290 286 282 279 276 268
11 10 343 37 76 31 104 237 166 145 112 1 225 111 289 313 154 92 168 187 188 187 189 208 229 258 273 281 287 309 320 318 315 311 307 304 299 296 292 289 285 282 277 274
139 160 54 340 155 149 231 250 307 303 344 226 130 69 252 305 335 125 162 166 189 189 214 232 270 281 277 284 299 314 318 314 312 310 307 305 299 295 290 285 284 285 283 279
203 294 152 138 358 359 208 20 145 246 314 304 25 238 254 195 73 46 110 129 135 153 230 289 312 304 292 296 307 314 311 311 313 313 309 303 299 297 291 288 287 284 279 274
339 132 101 36 9 22 73 331 342 91 65 57 231 264 288 35 44 21 90 61 318 109 343 318 316 304 296 304 310 311 314 313 310 308 307 306 305 300 291 284 285 282 280 278
5 189 348 147 233 59 71 341 22 0 330 279 272 254 237 21 7 46 46 39 56 31 337 329 320 299 299 307 313 316 306 307 312 314 316 313 309 301 300 294 285 284 282 283
340 93 188 170 194 166 131 198 193 65 174 221 315 268 77 163 135 41 344 328 300 298 321 326 319 314 312 313 314 309 313 317 323 323 320 315 306 301 303 295 290 290 290 287
97 122 212 210 61 26 34 354 170 156 242 250 181 267 37 160 165 324 304 309 310 313 322 320 327 318 313 314 314 321 327 325 327 325 320 312 310 313 309 302 309 308 302 297
171 217 315 326 16 70 237 196 234 96 88 202 194 256 238 262 332 326 322 330 319 321 316 322 322 317 314 317 327 333 332 328 329 325 322 318 317 321 318 317 318 313 306 301
130 221 197 212 135 115 213 225 198 173 162 233 229 276 277 286 295 323 317 318 324 320 320 324 318 317 318 328 335 335 335 332 332 326 324 321 327 328 327 325 320 316 316 311
148 226 208 265 286 297 235 241 212 210 223 233 267 264 277 291 303 302 314 324 327 323 330 329 325 321 326 333 336 337 337 334 331 328 327 325 327 330 329 329 325 327 323 316
147 228 75 286 229 236 256 241 230 238 244 247 257 268 269 283 312 321 328 333 336 347 337 332 328 321 324 332 337 339 338 335 331 330 325 326 325 327 329 330 332 332 329 326
160 159 133 255 44 18 288 227 211 222 228 222 243 250 272 291 325 316 323 328 339 346 337 333 332 322 322 329 337 339 337 333 334 334 332 332 330 332 331 337 336 339 336 335
162 162 178 236 124 239 247 190 176 210 233 232 247 262 263 278 303 300 280 329 337 336 333 324 328 326 320 326 335 337 338 337 338 335 339 342 342 337 338 342 342 344 339 342
203 185 228 223 200 282 292 275 206 187 253 228 240 250 263 268 300 313 273 331 327 330 331 328 317 321 318 323 333 337 340 343 344 340 342 347 343 338 342 347 346 347 349 354
212 210 209 183 201 215 251 119 89 93 273 225 212 196 203 198 224 272 321 323 323 330 335 328 320 313 313 320 329 337 342 347 347 343 344 348 349 347 346 354 352 354 -0 8
182 211 217 226 232 271 250 167 128 173 256 137 173 168 187 182 254 304 319 328 330 332 334 329 321 310 309 316 325 337 346 351 348 349 349 353 358 355 351 0 2 4 17 28
161 175 209 221 229 248 162 121 187 189 42 185 173 162 206 279 306 316 323 333 339 334 338 330 332 329 309 307 316 337 352 353 353 356 1 6 11 7 3 6 13 17 34 50
218 192 186 188 208 243 184 213 230 250 280 239 240 251 282 302 313 318 319 326 333 332 333 332 329 340 318 300 301 328 353 359 359 359 12 22 31 30 28 31 32 33 47 59
239 221 229 251 256 257 265 265 256 270 266 278 281 284 290 292 293 292 306 315 321 327 322 329 319 319 330 301 284 304 341 1 2 1 12 37 51 57 58 58 57 55 53 57
233 358 246 254 259 277 270 273 284 286 284 288 281 273 283 288 290 293 303 310 313 316 316 315 317 313 311 311 279 277 305 352 3 10 23 53 67 69 66 63 59 61 61 61
250 252 252 257 274 284 277 276 267 280 278 274 269 274 275 283 290 301 308 311 308 308 311 305 307 302 313 305 282 265 271 301 350 9 33 58 82 83 78 78 77 73 73 71
Wind_Speed_850mb
8 5 11 7 9 8 4 7 14 12 12 8 11 29 46 28 41 38 37 28 13 19 24 23 24 26 24 17 12 10 10 17 35 48 52 46 43 44 47 50 53 59 63 64
4 9 11 9 8 2 2 7 9 10 7 5 15 37 48 36 18 8 7 3 10 19 22 22 23 18 16 16 20 19 19 29 48 58 64 59 53 56 60 60 61 62 61 67
11 7 7 3 5 3 7 8 3 4 15 10 17 16 13 3 7 10 10 12 19 27 26 24 22 18 17 28 25 22 28 49 65 72 69 63 60 66 73 78 82 83 85 87
7 7 1 2 4 4 4 12 9 8 12 6 8 11 16 6 9 11 19 22 26 25 24 21 22 20 25 29 32 36 45 64 72 66 62 65 69 74 79 80 83 82 78 81
1 8 5 6 1 4 5 5 6 5 3 7 2 5 17 3 6 13 16 28 26 25 21 24 18 17 27 35 38 39 61 70 69 69 68 69 74 77 81 83 85 86 85 82
5 5 6 6 7 7 8 4 8 4 6 3 2 4 12 2 4 8 11 25 25 25 21 21 24 26 30 33 39 55 73 76 70 69 70 72 77 81 85 89 90 87 85 81
5 4 6 4 4 2 4 4 2 5 3 7 10 5 19 25 17 3 8 17 22 17 18 17 13 23 31 45 53 73 77 72 69 69 72 74 74 80 86 89 89 82 76 72
7 5 4 6 7 5 9 2 6 7 5 5 8 10 12 7 6 14 16 17 12 8 12 8 23 32 45 57 66 72 68 69 66 70 76 79 82 80 75 77 83 85 84 89
4 5 6 9 5 6 2 2 5 7 4 4 8 11 17 19 13 15 9 5 1 2 4 17 23 37 46 61 65 62 62 61 68 78 81 78 76 74 75 75 78 81 82 81
2 2 3 4 3 6 5 0 2 4 5 8 7 5 7 17 13 12 15 26 16 5 22 28 32 44 55 59 56 53 55 68 77 72 73 75 70 68 63 65 73 77 77 78
6 3 3 4 9 10 4 3 4 1 5 6 5 9 7 7 2 9 10 16 19 20 38 48 50 50 53 51 48 55 70 72 71 74 74 71 66 63 60 62 69 71 72 72
2 1 4 3 8 9 6 5 8 6 4 3 4 13 2 13 8 4 23 43 37 33 48 48 55 54 53 48 54 66 69 67 72 73 71 65 62 56 55 60 59 60 66 66
6 3 2 6 5 4 5 8 7 8 4 11 5 10 10 14 23 52 48 61 75 66 47 54 64 54 46 50 58 67 66 67 69 70 65 61 55 50 53 56 58 60 64 66
6 3 10 10 8 7 5 9 14 12 6 6 21 31 35 35 28 28 59 64 50 44 56 63 52 40 46 49 59 66 69 69 67 63 60 55 50 50 51 53 58 61 63 65
6 10 8 8 9 11 12 18 18 22 24 11 36 32 41 34 35 53 44 64 55 51 58 45 42 43 45 51 61 69 69 70 65 58 57 51 49 49 49 54 59 56 59 59
5 4 6 8 16 19 26 31 20 30 33 34 44 48 46 58 32 50 46 42 44 43 41 43 47 44 44 50 61 71 70 68 62 56 56 47 47 44 49 52 53 52 53 52
11 7 6 9 2 3 16 21 34 23 19 22 31 44 28 14 16 31 42 28 27 39 46 48 51 49 45 49 59 70 68 63 59 53 51 46 46 45 48 46 48 48 47 45
12 8 7 5 3 15 16 7 11 28 32 25 30 27 29 19 30 46 18 20 45 55 57 51 51 53 47 47 56 67 62 59 53 51 48 44 44 44 42 40 37 38 43 43
19 13 7 8 12 18 35 21 13 17 28 28 26 30 16 14 25 19 12 42 50 54 57 56 51 52 48 45 51 63 62 57 51 47 46 41 39 41 41 37 37 42 40 39
29 29 14 6 9 17 15 5 9 6 17 19 30 13 13 7 4 8 42 53 51 55 61 54 51 51 45 40 46 57 58 56 55 46 45 40 35 33 36 33 33 34 30 30
9 12 33 32 23 14 19 15 16 11 12 3 22 22 16 8 11 41 46 51 49 56 60 51 47 46 42 37 40 49 55 53 52 44 40 36 31 29 28 29 27 25 25 25
14 20 14 13 17 34 23 13 19 10 6 9 17 17 9 21 39 42 39 45 53 54 56 49 44 50 36 35 35 40 48 47 46 42 38 36 30 27 26 24 21 18 18 20
10 16 10 20 15 9 24 15 38 41 18 10 16 24 32 53 51 46 45 43 57 60 58 57 48 51 36 32 32 31 37 43 41 40 34 33 31 27 27 26 24 21 21 23
16 25 22 16 26 26 36 23 25 31 38 47 58 74 68 64 55 47 47 62 65 62 58 60 52 51 51 34 30 26 27 35 38 34 28 26 31 35 36 37 41 42 37 32
13 4 13 26 39 39 52 57 65 77 75 67 60 61 65 55 48 49 62 72 70 70 67 57 57 51 55 43 32 27 22 21 28 29 26 23 29 38 42 47 47 49 49 46
31 22 19 25 33 45 49 49 39 52 62 64 61 54 47 48 53 56 70 82 81 79 76 69 65 50 51 54 36 31 27 15 13 17 20 22 25 32 38 44 49 49 49 52
Wind_Direction_850mb
181 229 218 63 65 59 345 289 276 318 65 337 269 289 288 284 278 273 270 272 259 237 242 230 212 204 206 205 214 237 263 326 342 341 331 304 293 292 288 283 276 271 268 269
189 225 60 70 68 46 241 289 297 294 30 337 311 298 285 287 260 222 123 166 185 150 164 181 189 191 185 196 210 233 262 307 326 328 325 315 296 288 280 272 269 265 263 265
265 83 91 44 134 292 246 227 342 238 330 259 319 278 301 48 113 133 169 154 161 161 168 176 184 196 199 220 236 255 301 320 322 318 313 310 300 294 290 288 285 277 270 267
273 67 167 137 268 147 259 29 47 333 16 289 25 279 300 293 175 187 190 185 167 167 166 181 191 198 227 257 273 293 312 321 322 320 315 309 302 295 293 287 281 276 275 274
170 150 154 213 98 152 126 49 49 9 68 29 289 71 274 203 237 200 196 188 184 188 185 185 213 219 230 256 285 305 320 321 318 313 309 304 298 294 290 286 282 279 276 268
11 10 343 37 76 31 104 237 166 145 112 1 225 111 289 313 154 92 168 187 188 187 189 208 229 258 273 281 287 309 320 318 315 311 307 304 299 296 292 289 285 282 277 274
139 160 54 340 155 149 231 250 307 303 344 226 130 69 252 305 335 125 162 166 189 189 214 232 270 281 277 284 299 314 318 314 312 310 307 305 299 295 290 285 284 285 283 279
203 294 152 138 358 359 208 20 145 246 314 304 25 238 254 195 73 46 110 129 135 153 230 289 312 304 292 296 307 314 311 311 313 313 309 303 299 297 291 288 287 284 279 274
339 132 101 36 9 22 73 331 342 91 65 57 231 264 288 35 44 21 90 61 318 109 343 318 316 304 296 304 310 311 314 313 310 308 307 306 305 300 291 284 285 282 280 278
5 189 348 147 233 59 71 341 22 0 330 279 272 254 237 21 7 46 46 39 56 31 337 329 320 299 299 307 313 316 306 307 312 314 316 313 309 301 300 294 285 284 282 283
340 93 188 170 194 166 131 198 193 65 174 221 315 268 77 163 135 41 344 328 300 298 321 326 319 314 312 313 314 309 313 317 323 323 320 315 306 301 303 295 290 290 290 287
97 122 212 210 61 26 34 354 170 156 242 250 181 267 37 160 165 324 304 309 310 313 322 320 327 318 313 314 314 321 327 325 327 325 320 312 310 313 309 302 309 308 302 297
171 217 315 326 16 70 237 196 234 96 88 202 194 256 238 262 332 326 322 330 319 321 316 322 322 317 314 317 327 333 332 328 329 325 322 318 317 321 318 317 318 313 306 301
130 221 197 212 135 115 213 225 198 173 162 233 229 276 277 286 295 323 317 318 324 320 320 324 318 317 318 328 335 335 335 332 332 326 324 321 327 328 327 325 320 316 316 311
148 226 208 265 286 297 235 241 212 210 223 233 267 264 277 291 303 302 314 324 327 323 330 329 325 321 326 333 336 337 337 334 331 328 327 325 327 330 329 329 325 327 323 316
147 228 75 286 229 236 256 241 230 238 244 247 257 268 269 283 312 321 328 333 336 347 337 332 328 321 324 332 337 339 338 335 331 330 325 326 325 327 329 330 332 332 329 326
160 159 133 255 44 18 288 227 211 222 228 222 243 250 272 291 325 316 323 328 339 346 337 333 332 322 322 329 337 339 337 333 334 334 332 332 330 332 331 337 336 339 336 335
162 162 178 236 124 239 247 190 176 210 233 232 247 262 263 278 303 300 280 329 337 336 333 324 328 326 320 326 335 337 338 337 338 335 339 342 342 337 338 342 342 344 339 342
203 185 228 223 200 282 292 275 206 187 253 228 240 250 263 268 300 313 273 331 327 330 331 328 317 321 318 323 333 337 340 343 344 340 342 347 343 338 342 347 346 347 349 354
212 210 209 183 201 215 251 119 89 93 273 225 212 196 203 198 224 272 321 323 323 330 335 328 320 313 313 320 329 337 342 347 347 343 344 348 349 347 346 354 352 354 -0 8
182 211 217 226 232 271 250 167 128 173 256 137 173 168 187 182 254 304 319 328 330 332 334 329 321 310 309 316 325 337 346 351 348 349 349 353 358 355 351 0 2 4 17 28
161 175 209 221 229 248 162 121 187 189 42 185 173 162 206 279 306 316 323 333 339 334 338 330 332 329 309 307 316 337 352 353 353 356 1 6 11 7 3 6 13 17 34 50
218 192 186 188 208 243 184 213 230 250 280 239 240 251 282 302 313 318 319 326 333 332 333 332 329 340 318 300 301 328 353 359 359 359 12 22 31 30 28 31 32 33 47 59
239 221 229 251 256 257 265 265 256 270 266 278 281 284 290 292 293 292 306 315 321 327 322 329 319 319 330 301 284 304 341 1 2 1 12 37 51 57 58 58 57 55 53 57
233 358 246 254 259 277 270 273 284 286 284 288 281 273 283 288 290 293 303 310 313 316 316 315 317 313 311 311 279 277 305 352 3 10 23 53 67 69 66 63 59 61 61 61
250 252 252 257 274 284 277 276 267 280 278 274 269 274 275 283 290 301 308 311 308 308 311 305 307 302 313 305 282 265 271 301 350 9 33 58 82 83 78 78 77 73 73 71